Voltar ao catálogo

EUTE KA SAT 9A

KA SAT

AtivoComunicaçõesGEO
NORAD 37258·PAYLOAD·🇪🇺 EU

Lançado Dec 26, 2010 de Baikonur Cosmodrome

Loading…

TLE

AtualizadoSource: Space-Track

Época: Sep 14, 2026, 18:58 UTC

1 37258U 10069A   26257.79078767  .00000054  00000-0  00000-0 0  9993
2 37258   0.0739 353.3282 0005430 177.6029 116.5306  1.00272307 44907

Acompanhe EUTE KA SAT 9A em tempo real com AllMySat

Download on the App Store